N216TB TJSJ-TUPJ

Flight info

Callsign N216TB
Flight time 0h 31m
Altitude 5000
Route DCT SJU RTE2 MALIE DCT JANER DCT LEVOM DCT
Aircraft BE58/L-L/C

Departure

Time 2026-05-08 18:42
Airport Luis Munoz Marin International Airport (TJSJ)

Arrival

Time 2026-05-08 19:13
Airport Terrance B. Lettsome International Airport (TUPJ)
Time Latitude Longitude Altitude Speed Heading
2026-05-08 18:31 18.44302 -65.99755 11 ft 0 kts 62°
2026-05-08 18:36 18.44253 -65.99733 11 ft 13 kts 194°
2026-05-08 18:37 18.44242 -65.99785 11 ft 9 kts 297°
2026-05-08 18:37 18.44281 -65.99839 11 ft 10 kts 325°
2026-05-08 18:37 18.44289 -65.99899 11 ft 10 kts 244°
2026-05-08 18:37 18.44254 -65.99969 11 ft 9 kts 248°
2026-05-08 18:38 18.44253 -65.99972 11 ft 0 kts 248°
2026-05-08 18:38 18.44246 -65.99989 11 ft 7 kts 247°
2026-05-08 18:39 18.44222 -66.00049 11 ft 11 kts 246°
2026-05-08 18:39 18.44191 -66.00127 11 ft 10 kts 250°
2026-05-08 18:39 18.44182 -66.00200 11 ft 11 kts 303°
2026-05-08 18:39 18.44244 -66.00239 11 ft 8 kts 335°
2026-05-08 18:40 18.44280 -66.00256 11 ft 0 kts 338°
2026-05-08 18:40 18.44289 -66.00260 11 ft 8 kts 338°
2026-05-08 18:40 18.44355 -66.00272 11 ft 10 kts 25°
2026-05-08 18:41 18.44378 -66.00246 10 ft 0 kts 60°
2026-05-08 18:41 18.44486 -65.99990 11 ft 84 kts 67°
2026-05-08 18:41 18.44761 -65.99265 190 ft 125 kts 66°
2026-05-08 18:42 18.45095 -65.98431 926 ft 123 kts 68°
2026-05-08 18:42 18.45440 -65.97599 1564 ft 131 kts 68°
2026-05-08 18:42 18.45831 -65.96689 2024 ft 139 kts 70°
2026-05-08 18:42 18.45819 -65.95713 2510 ft 139 kts 118°
2026-05-08 18:43 18.45310 -65.94847 3000 ft 139 kts 115°
2026-05-08 18:43 18.45056 -65.93871 3484 ft 140 kts 96°
2026-05-08 18:43 18.45067 -65.92847 3959 ft 140 kts 90°
2026-05-08 18:43 18.45111 -65.91822 4450 ft 141 kts 89°
2026-05-08 18:44 18.45173 -65.90792 4924 ft 142 kts 88°
2026-05-08 18:44 18.45242 -65.89691 5004 ft 165 kts 88°
2026-05-08 18:44 18.45320 -65.88442 5006 ft 175 kts 88°
2026-05-08 18:44 18.45404 -65.87155 5005 ft 178 kts 88°
2026-05-08 18:45 18.45492 -65.85840 5006 ft 180 kts 88°
2026-05-08 18:45 18.45581 -65.84524 5003 ft 180 kts 88°
2026-05-08 18:45 18.45668 -65.83210 5005 ft 179 kts 88°
2026-05-08 18:45 18.45754 -65.81895 4993 ft 180 kts 87°
2026-05-08 18:46 18.45842 -65.80582 4995 ft 179 kts 88°
2026-05-08 18:46 18.45927 -65.79273 4994 ft 179 kts 87°
2026-05-08 18:46 18.46012 -65.77979 4992 ft 179 kts 88°
2026-05-08 18:46 18.46097 -65.76670 4992 ft 180 kts 88°
2026-05-08 18:47 18.46185 -65.75356 4996 ft 180 kts 88°
2026-05-08 18:47 18.46270 -65.74042 4993 ft 180 kts 88°
2026-05-08 18:47 18.46355 -65.72725 4998 ft 180 kts 87°
2026-05-08 18:47 18.46441 -65.71410 4989 ft 180 kts 88°
2026-05-08 18:48 18.46528 -65.70093 4986 ft 180 kts 88°
2026-05-08 18:48 18.46613 -65.68781 4990 ft 179 kts 87°
2026-05-08 18:48 18.46698 -65.67471 4986 ft 179 kts 87°
2026-05-08 18:48 18.46783 -65.66163 4988 ft 179 kts 88°
2026-05-08 18:49 18.46867 -65.64872 4989 ft 180 kts 88°
2026-05-08 18:49 18.46953 -65.63560 4989 ft 180 kts 88°
2026-05-08 18:49 18.47038 -65.62245 4989 ft 180 kts 87°
2026-05-08 18:49 18.47123 -65.60930 4983 ft 180 kts 88°
2026-05-08 18:50 18.47207 -65.59615 4988 ft 180 kts 88°
2026-05-08 18:50 18.47293 -65.58298 4986 ft 180 kts 87°
2026-05-08 18:50 18.47377 -65.56979 4986 ft 181 kts 87°
2026-05-08 18:50 18.47463 -65.55659 4987 ft 180 kts 88°
2026-05-08 18:51 18.47548 -65.54336 4986 ft 181 kts 88°
2026-05-08 18:51 18.47632 -65.53033 4982 ft 181 kts 88°
2026-05-08 18:51 18.47717 -65.51711 4986 ft 181 kts 87°
2026-05-08 18:51 18.47801 -65.50392 4990 ft 180 kts 88°
2026-05-08 18:52 18.47886 -65.49074 4984 ft 180 kts 88°
2026-05-08 18:52 18.47970 -65.47757 4981 ft 181 kts 87°
2026-05-08 18:52 18.48054 -65.46438 4985 ft 180 kts 87°
2026-05-08 18:52 18.48139 -65.45121 4985 ft 180 kts 88°
2026-05-08 18:53 18.48223 -65.43803 4984 ft 180 kts 87°
2026-05-08 18:53 18.48307 -65.42483 4987 ft 181 kts 87°
2026-05-08 18:53 18.48391 -65.41161 4988 ft 181 kts 88°
2026-05-08 18:53 18.48474 -65.39858 4988 ft 181 kts 87°
2026-05-08 18:54 18.48558 -65.38538 4984 ft 181 kts 88°
2026-05-08 18:54 18.48642 -65.37214 4989 ft 181 kts 88°
2026-05-08 18:54 18.48726 -65.35894 4987 ft 181 kts 87°
2026-05-08 18:54 18.48810 -65.34573 4985 ft 181 kts 88°
2026-05-08 18:55 18.48977 -65.31925 4989 ft 181 kts 88°
2026-05-08 18:55 18.49060 -65.30605 4985 ft 180 kts 88°
2026-05-08 18:55 18.49143 -65.29304 4986 ft 180 kts 88°
2026-05-08 18:56 18.49225 -65.27990 4987 ft 180 kts 88°
2026-05-08 18:56 18.49308 -65.26671 4988 ft 181 kts 88°
2026-05-08 18:56 18.49391 -65.25351 4990 ft 181 kts 88°
2026-05-08 18:56 18.49474 -65.24032 4985 ft 181 kts 88°
2026-05-08 18:57 18.49557 -65.22710 4989 ft 181 kts 88°
2026-05-08 18:57 18.49612 -65.21834 4986 ft 181 kts 88°
2026-05-08 18:57 18.49722 -65.20068 4990 ft 180 kts 87°
2026-05-08 18:57 18.49805 -65.18751 4987 ft 180 kts 88°
2026-05-08 18:58 18.49887 -65.17430 4990 ft 181 kts 88°
2026-05-08 18:58 18.49968 -65.16129 4991 ft 180 kts 88°
2026-05-08 18:58 18.50051 -65.14809 4992 ft 180 kts 88°
2026-05-08 18:58 18.50131 -65.13489 4996 ft 181 kts 88°
2026-05-08 18:59 18.50216 -65.12168 4988 ft 181 kts 88°
2026-05-08 18:59 18.50298 -65.10842 4991 ft 181 kts 88°
2026-05-08 18:59 18.50380 -65.09518 4988 ft 181 kts 88°
2026-05-08 18:59 18.50462 -65.08197 4991 ft 181 kts 88°
2026-05-08 19:00 18.50516 -65.07323 4988 ft 181 kts 88°
2026-05-08 19:00 18.50624 -65.05572 4991 ft 181 kts 88°
2026-05-08 19:00 18.50706 -65.04247 4993 ft 181 kts 88°
2026-05-08 19:00 18.50788 -65.02921 4984 ft 181 kts 88°
2026-05-08 19:01 18.50870 -65.01594 4978 ft 182 kts 88°
2026-05-08 19:01 18.50951 -65.00266 4978 ft 181 kts 88°
2026-05-08 19:01 18.51033 -64.98938 4978 ft 182 kts 88°
2026-05-08 19:01 18.51114 -64.97612 4980 ft 181 kts 88°
2026-05-08 19:02 18.51194 -64.96306 4984 ft 181 kts 88°
2026-05-08 19:02 18.51276 -64.94984 4981 ft 181 kts 88°
2026-05-08 19:02 18.51357 -64.93660 4982 ft 181 kts 88°
2026-05-08 19:02 18.51437 -64.92339 4985 ft 181 kts 88°
2026-05-08 19:03 18.51518 -64.91015 4986 ft 181 kts 88°
2026-05-08 19:03 18.51599 -64.89690 4986 ft 181 kts 88°
2026-05-08 19:03 18.51624 -64.88371 4986 ft 180 kts 99°
2026-05-08 19:03 18.51126 -64.87173 4990 ft 180 kts 120°
2026-05-08 19:04 18.50473 -64.86055 4846 ft 176 kts 121°
2026-05-08 19:04 18.49766 -64.85040 4642 ft 170 kts 135°
2026-05-08 19:04 18.48851 -64.84246 4391 ft 170 kts 141°
2026-05-08 19:04 18.47902 -64.83551 4213 ft 168 kts 144°
2026-05-08 19:05 18.46927 -64.82863 3993 ft 169 kts 144°
2026-05-08 19:05 18.45942 -64.82191 3795 ft 169 kts 146°
2026-05-08 19:05 18.44953 -64.81528 3585 ft 168 kts 146°
2026-05-08 19:05 18.43969 -64.80860 3373 ft 169 kts 146°
2026-05-08 19:06 18.42967 -64.80216 3190 ft 168 kts 148°
2026-05-08 19:06 18.41957 -64.79605 2983 ft 167 kts 148°
2026-05-08 19:06 18.40945 -64.79010 2858 ft 167 kts 150°
2026-05-08 19:06 18.39928 -64.78468 2774 ft 162 kts 148°
2026-05-08 19:07 18.39127 -64.77713 2731 ft 153 kts 125°
2026-05-08 19:07 18.38589 -64.76752 2607 ft 153 kts 115°
2026-05-08 19:07 18.38163 -64.75749 2469 ft 148 kts 112°
2026-05-08 19:07 18.37748 -64.74774 2348 ft 145 kts 114°
2026-05-08 19:08 18.37325 -64.73800 2157 ft 148 kts 114°
2026-05-08 19:08 18.36925 -64.72819 2064 ft 144 kts 108°
2026-05-08 19:08 18.36830 -64.71815 2187 ft 135 kts 85°
2026-05-08 19:08 18.37007 -64.70806 2061 ft 146 kts 81°
2026-05-08 19:09 18.37165 -64.69768 2051 ft 141 kts 83°
2026-05-08 19:09 18.37283 -64.68769 2080 ft 137 kts 81°
2026-05-08 19:09 18.37525 -64.67811 2124 ft 135 kts 73°
2026-05-08 19:09 18.37818 -64.66872 2157 ft 135 kts 74°
2026-05-08 19:10 18.38111 -64.65928 2089 ft 139 kts 75°
2026-05-08 19:10 18.38419 -64.64960 2103 ft 139 kts 73°
2026-05-08 19:10 18.38724 -64.64002 2103 ft 139 kts 73°
2026-05-08 19:10 18.39034 -64.63019 2009 ft 143 kts 74°
2026-05-08 19:11 18.39350 -64.62020 1967 ft 143 kts 73°
2026-05-08 19:11 18.39682 -64.61067 1933 ft 139 kts 68°
2026-05-08 19:11 18.40199 -64.60173 1660 ft 149 kts 53°
2026-05-08 19:11 18.40844 -64.59339 1469 ft 141 kts 54°
2026-05-08 19:12 18.41456 -64.58542 1198 ft 139 kts 52°
2026-05-08 19:12 18.42073 -64.57810 1238 ft 127 kts 53°
2026-05-08 19:12 18.42694 -64.57087 1017 ft 137 kts 46°
2026-05-08 19:12 18.43347 -64.56411 622 ft 122 kts 57°
2026-05-08 19:13 18.43749 -64.55741 366 ft 89 kts 64°
2026-05-08 19:13 18.44029 -64.55184 166 ft 80 kts 63°
2026-05-08 19:13 18.44281 -64.54697 27 ft 72 kts 64°
2026-05-08 19:13 18.44438 -64.54385 15 ft 29 kts 58°
2026-05-08 19:14 18.44518 -64.54233 13 ft 18 kts 65°
2026-05-08 19:14 18.44540 -64.54132 12 ft 12 kts 109°
2026-05-08 19:14 18.44511 -64.54075 13 ft 7 kts 106°
2026-05-08 19:14 18.44540 -64.54002 13 ft 17 kts 59°
2026-05-08 19:15 18.44576 -64.53927 13 ft 7 kts 92°
2026-05-08 19:15 18.44552 -64.53888 13 ft 6 kts 100°
2026-05-08 19:15 18.44557 -64.53867 12 ft 0 kts 60°